| time (UTC) | temp C | wind direction | speed KPH | gust KPH | rain 1hr cm | rain 24hr cm | rain mn cm | humidity % | barometer mb |
| 20260509043838 | 5 | 135 | 1.6 | 3.2 | 0.00 | 6.45 | 0.00 | 76 | 1017.7 |
| 20260509043336 | 5 | 135 | 0.0 | 6.4 | 0.00 | 6.45 | 0.00 | 76 | 1017.8 |
| 20260509042827 | 5 | 113 | 1.6 | 11.3 | 0.00 | 6.45 | 0.00 | 76 | 1017.5 |
| 20260509042317 | 5 | 158 | 4.8 | 12.9 | 0.00 | 6.45 | 0.00 | 73 | 1017.8 |
| 20260509042307 | 5 | 135 | 1.6 | 12.9 | 0.00 | 6.45 | 0.00 | 75 | 1017.7 |
| 20260509041243 | 5 | 158 | 1.6 | 3.2 | 0.00 | 6.45 | 0.00 | 71 | 1017.2 |
| 20260509040737 | 5 | 135 | 1.6 | 6.4 | 0.00 | 6.45 | 0.00 | 71 | 1017.1 |
| 20260509040228 | 5 | 135 | 1.6 | 11.3 | 0.00 | 6.45 | 0.00 | 71 | 1017.3 |
| 20260509035720 | 5 | 135 | 0.0 | 12.9 | 0.00 | 6.45 | 0.00 | 71 | 1017.1 |
| 20260509035217 | 5 | 158 | 1.6 | 12.9 | 0.00 | 6.45 | 0.00 | 70 | 1017.2 |
| 20260509034658 | 5 | 158 | 3.2 | 12.9 | 0.00 | 6.45 | 0.00 | 70 | 1017.3 |
| 20260509034146 | 5 | 158 | 0.0 | 6.4 | 0.00 | 6.45 | 0.00 | 71 | 1017.0 |
| 20260509033639 | 5 | 158 | 1.6 | 3.2 | 0.00 | 6.45 | 0.00 | 72 | 1016.9 |
| 20260509033131 | 5 | 180 | 1.6 | 3.2 | 0.00 | 6.45 | 0.00 | 71 | 1016.9 |
| 20260509032627 | 5 | 135 | 0.0 | 6.4 | 0.00 | 6.45 | 0.00 | 72 | 1016.7 |
| 20260509032100 | 5 | 158 | 0.0 | 6.4 | 0.00 | 6.45 | 0.00 | 72 | 1016.7 |
| 20260509031556 | 5 | 158 | 3.2 | 6.4 | 0.00 | 6.45 | 0.00 | 72 | 1016.6 |
| 20260509031046 | 5 | 158 | 3.2 | 6.4 | 0.00 | 6.45 | 0.00 | 70 | 1016.7 |
| 20260509030527 | 6 | 158 | 0.0 | 3.2 | 0.00 | 6.45 | 0.00 | 68 | 1016.3 |
| 20260509030025 | 6 | 158 | 0.0 | 6.4 | 0.00 | 6.45 | 0.00 | 65 | 1016.3 |
| 20260509025519 | 6 | 158 | 0.0 | 6.4 | 0.00 | 6.45 | 0.64 | 64 | 1016.0 |
| 20260509025013 | 6 | 135 | 0.0 | 3.2 | 0.00 | 6.45 | 0.64 | 65 | 1015.8 |
| 20260509024511 | 6 | 135 | 1.6 | 3.2 | 0.00 | 6.45 | 0.64 | 66 | 1015.7 |
| 20260509024004 | 6 | 113 | 0.0 | 3.2 | 0.00 | 6.45 | 0.64 | 68 | 1016.0 |
| 20260509023450 | 6 | 113 | 0.0 | 3.2 | 0.00 | 6.45 | 0.64 | 68 | 1015.7 |
| 20260509022938 | 6 | 113 | 0.0 | 0.0 | 0.00 | 6.45 | 0.64 | 70 | 1015.7 |
| 20260509022429 | 6 | 113 | 0.0 | 0.0 | 0.00 | 6.45 | 0.64 | 70 | 1015.6 |
| 20260509021928 | 6 | 113 | 0.0 | 0.0 | 0.00 | 6.45 | 0.64 | 69 | 1015.8 |
| 20260509021637 | 6 | 113 | 0.0 | 3.2 | 0.00 | 6.45 | 0.64 | 67 | 1014.9 |
| 20260509020901 | 6 | 113 | 0.0 | 3.2 | 0.00 | 6.45 | 0.64 | 68 | 1015.1 |
| 20260509020400 | 6 | 113 | 0.0 | 3.2 | 0.00 | 6.45 | 0.64 | 69 | 1015.1 |
| 20260509015845 | 5 | 113 | 0.0 | 3.2 | 0.00 | 6.45 | 0.64 | 72 | 1014.9 |
| 20260509015322 | 5 | 113 | 0.0 | 3.2 | 0.00 | 6.45 | 0.64 | 72 | 1015.0 |
| 20260509014812 | 5 | 68 | 0.0 | 3.2 | 0.00 | 6.45 | 0.64 | 73 | 1014.6 |
| 20260509014258 | 5 | 68 | 0.0 | 3.2 | 0.64 | 6.45 | 0.64 | 72 | 1014.6 |
| 20260509014015 | 5 | 90 | 0.0 | 0.0 | 0.64 | 6.45 | 0.64 | 70 | 1014.0 |
| 20260509014006 | 5 | 90 | 0.0 | 0.0 | 0.64 | 6.45 | 0.64 | 70 | 1013.9 |
| 20260509012946 | 5 | 90 | 0.0 | 0.0 | 0.64 | 6.45 | 0.64 | 69 | 1013.9 |
| 20260509012207 | 5 | 90 | 0.0 | 0.0 | 0.64 | 6.45 | 0.64 | 70 | 1013.8 |
| 20260509011704 | 5 | 90 | 0.0 | 0.0 | 0.64 | 6.45 | 0.64 | 70 | 1013.8 |
| 20260509011144 | 5 | 90 | 0.0 | 0.0 | 0.64 | 6.45 | 0.64 | 70 | 1013.5 |
| 20260509010636 | 5 | 90 | 0.0 | 0.0 | 0.64 | 6.45 | 0.64 | 72 | 1013.4 |
| 20260509010118 | 5 | 90 | 0.0 | 0.0 | 0.64 | 6.45 | 0.64 | 73 | 1012.9 |
| 20260509005605 | 6 | 90 | 0.0 | 0.0 | 0.64 | 6.45 | 0.64 | 72 | 1012.5 |
| 20260509005337 | 6 | 90 | 0.0 | 0.0 | 0.64 | 6.45 | 0.64 | 71 | 1012.6 |
| 20260509004554 | 6 | 90 | 0.0 | 0.0 | 0.64 | 6.45 | 0.64 | 69 | 1012.5 |
| 20260509004045 | 18 | 248 | 0.0 | 0.0 | 0.00 | 6.45 | 0.00 | 85 | 1003.0 |
| 20260509003540 | 18 | 248 | 0.0 | 0.0 | 0.00 | 6.45 | 0.00 | 85 | 1003.0 |
| 20260509003305 | 18 | 248 | 0.0 | 0.0 | 0.00 | 6.45 | 0.00 | 85 | 1003.0 |
| 20260509002525 | 18 | 248 | 0.0 | 0.0 | 0.00 | 6.45 | 0.00 | 85 | 1003.0 |
| 20260509002020 | 18 | 248 | 0.0 | 0.0 | 0.00 | 6.45 | 0.00 | 85 | 1003.0 |
| 20260509001457 | 18 | 248 | 0.0 | 0.0 | 0.00 | 6.45 | 0.00 | 85 | 1003.0 |
| 20260509000952 | 0 | 248 | 0.0 | 0.0 | 0.00 | 6.45 | 0.00 | 10 | 1003.0 |
| 20260509000455 | 18 | 248 | 0.0 | 0.0 | 0.00 | 6.45 | 0.00 | 85 | 1003.0 |
| 20260508235951 | 18 | 248 | 0.0 | 0.0 | 0.00 | 6.45 | 0.00 | 85 | 1003.0 |
| 20260508235447 | 18 | 248 | 0.0 | 0.0 | 0.00 | 6.45 | 0.00 | 85 | 1003.0 |
| 20260508234942 | 18 | 248 | 0.0 | 0.0 | 0.00 | 6.45 | 0.00 | 85 | 1003.0 |
| 20260508234428 | 18 | 248 | 0.0 | 0.0 | 0.00 | 6.45 | 0.00 | 85 | 1003.0 |
| 20260508233925 | 18 | 248 | 0.0 | 0.0 | 0.00 | 6.45 | 0.00 | 85 | 1003.0 |
| 20260508233414 | 18 | 248 | 0.0 | 0.0 | 0.00 | 6.45 | 0.00 | 85 | 1003.0 |
| 20260508232900 | 18 | 248 | 0.0 | 0.0 | 0.00 | 6.45 | 0.00 | 85 | 1003.0 |
| 20260508232339 | 18 | 248 | 0.0 | 0.0 | 0.00 | 6.45 | 0.00 | 85 | 1003.0 |
| 20260508231833 | 18 | 248 | 0.0 | 0.0 | 0.00 | 6.45 | 0.00 | 85 | 1003.0 |
| 20260508231333 | 18 | 248 | 0.0 | 0.0 | 0.00 | 6.45 | 0.00 | 85 | 1003.0 |
| 20260508230828 | 18 | 248 | 0.0 | 0.0 | 0.00 | 6.45 | 0.00 | 85 | 1003.0 |
| 20260508230327 | 18 | 248 | 0.0 | 0.0 | 0.00 | 6.45 | 0.00 | 85 | 1003.0 |
| 20260508230307 | 18 | 248 | 0.0 | 0.0 | 0.00 | 6.45 | 0.00 | 85 | 1003.0 |
| 20260508225307 | 18 | 248 | 0.0 | 0.0 | 0.00 | 6.45 | 0.00 | 85 | 1003.0 |
| 20260508224803 | 18 | 248 | 0.0 | 0.0 | 0.00 | 6.45 | 0.00 | 85 | 1003.0 |
| 20260508224302 | 18 | 248 | 0.0 | 0.0 | 0.00 | 6.45 | 0.00 | 85 | 1003.0 |
| 20260508223746 | 18 | 248 | 0.0 | 0.0 | 0.00 | 6.45 | 0.00 | 85 | 1003.0 |
| 20260508223232 | 18 | 248 | 0.0 | 0.0 | 0.00 | 6.45 | 0.00 | 85 | 1003.0 |
| 20260508222706 | 18 | 248 | 0.0 | 0.0 | 0.00 | 6.45 | 0.00 | 85 | 1003.0 |
| 20260508222148 | 18 | 248 | 0.0 | 0.0 | 0.00 | 6.45 | 0.00 | 85 | 1003.0 |
| 20260508221638 | 18 | 248 | 0.0 | 0.0 | 0.00 | 6.45 | 0.00 | 85 | 1003.0 |
| 20260508221132 | 18 | 248 | 0.0 | 0.0 | 0.00 | 6.45 | 0.00 | 85 | 1003.0 |
| 20260508220622 | 18 | 248 | 0.0 | 0.0 | 0.00 | 6.45 | 0.00 | 85 | 1003.0 |
| 20260508220058 | 18 | 248 | 0.0 | 0.0 | 0.00 | 6.45 | 0.00 | 85 | 1003.0 |
| 20260508215549 | 18 | 248 | 0.0 | 0.0 | 0.00 | 6.45 | 0.00 | 85 | 1003.0 |
| 20260508215047 | 18 | 248 | 0.0 | 0.0 | 0.00 | 6.45 | 0.00 | 85 | 1003.0 |
| 20260508215036 | 18 | 248 | 0.0 | 0.0 | 0.00 | 6.45 | 0.00 | 85 | 1003.0 |
| 20260508214014 | 18 | 248 | 0.0 | 0.0 | 0.00 | 6.45 | 0.00 | 85 | 1003.0 |
| 20260508213514 | 18 | 248 | 0.0 | 0.0 | 0.00 | 6.45 | 0.00 | 85 | 1003.0 |
| 20260508212959 | 18 | 248 | 0.0 | 0.0 | 0.00 | 6.45 | 0.00 | 85 | 1003.0 |
| 20260508212459 | 18 | 248 | 0.0 | 0.0 | 0.00 | 6.45 | 0.00 | 85 | 1003.0 |
| 20260508211943 | 18 | 248 | 0.0 | 0.0 | 0.00 | 6.45 | 0.00 | 85 | 1003.0 |
| 20260508211443 | 18 | 248 | 0.0 | 0.0 | 0.00 | 6.45 | 0.00 | 85 | 1003.0 |
| 20260508210938 | 18 | 248 | 0.0 | 0.0 | 0.00 | 6.45 | 0.00 | 85 | 1003.0 |
| 20260508210438 | 18 | 248 | 0.0 | 0.0 | 0.00 | 6.45 | 0.00 | 85 | 1003.0 |
| 20260508205930 | 18 | 248 | 0.0 | 0.0 | 0.00 | 6.45 | 0.00 | 85 | 1003.0 |
| 20260508205428 | 18 | 248 | 0.0 | 0.0 | 0.00 | 6.45 | 0.00 | 85 | 1003.0 |
| 20260508204924 | 18 | 248 | 0.0 | 0.0 | 0.00 | 6.45 | 0.00 | 85 | 1003.0 |
| 20260508204416 | 0 | 248 | 0.0 | 0.0 | 0.00 | 6.45 | 0.00 | 10 | 1003.0 |
| 20260508203859 | 18 | 248 | 0.0 | 0.0 | 0.00 | 6.45 | 0.00 | 85 | 1003.0 |
| 20260508203344 | 18 | 248 | 0.0 | 0.0 | 0.00 | 6.45 | 0.00 | 85 | 1003.0 |
| 20260508202827 | 18 | 248 | 0.0 | 0.0 | 3.23 | 6.45 | 0.00 | 85 | 1003.0 |
| 20260508202557 | 18 | 248 | 0.0 | 0.0 | 3.23 | 6.45 | 0.00 | 85 | 1003.0 |
| 20260508201823 | 18 | 248 | 0.0 | 0.0 | 3.23 | 6.45 | 0.00 | 85 | 1003.0 |
| 20260508201300 | 18 | 248 | 0.0 | 0.0 | 6.45 | 6.45 | 0.00 | 85 | 1003.0 |
| 20260508200752 | 18 | 248 | 0.0 | 0.0 | 6.45 | 6.45 | 0.00 | 85 | 1003.0 |
| 20260508200238 | 18 | 248 | 0.0 | 0.0 | 6.45 | 6.45 | 0.00 | 85 | 1003.0 |
| 20260508200003 | 18 | 248 | 0.0 | 0.0 | 6.45 | 6.45 | 0.00 | 85 | 1003.0 |
| 20260508195214 | 18 | 248 | 0.0 | 0.0 | 6.45 | 6.45 | 0.00 | 85 | 1003.0 |
| 20260508195201 | 18 | 248 | 0.0 | 0.0 | 6.45 | 6.45 | 0.00 | 85 | 1003.0 |
| 20260508194144 | 0 | 248 | 0.0 | 0.0 | 6.45 | 6.45 | 0.00 | 10 | 1003.0 |
| 20260508193628 | 18 | 248 | 0.0 | 0.0 | 6.45 | 6.45 | 0.00 | 85 | 1003.0 |
| 20260508193120 | 18 | 248 | 0.0 | 0.0 | 3.23 | 3.23 | 0.00 | 85 | 1003.0 |
| 20260508192601 | 18 | 248 | 0.0 | 0.0 | 3.23 | 3.23 | 0.00 | 85 | 1003.0 |
| 20260508192042 | 18 | 248 | 0.0 | 0.0 | 3.23 | 3.23 | 0.00 | 85 | 1003.0 |
| 20260508191523 | 18 | 248 | 0.0 | 0.0 | 0.00 | 0.00 | 0.00 | 85 | 1003.0 |
| 20260508191001 | 18 | 248 | 0.0 | 0.0 | 0.00 | 0.00 | 0.00 | 85 | 1003.0 |
| 20260508190457 | 18 | 248 | 0.0 | 0.0 | 0.00 | 0.00 | 0.00 | 85 | 1003.0 |
| 20260508185950 | 18 | 248 | 0.0 | 24.1 | 0.00 | 0.00 | 0.00 | 85 | 1003.0 |
| 20260508185455 | 14 | 293 | 9.7 | 20.9 | 0.00 | 0.00 | 0.00 | 42 | 1009.5 |
| 20260508185445 | 18 | 315 | 12.9 | 24.1 | 0.00 | 0.00 | 0.00 | 85 | 1009.1 |
| 20260508184424 | 14 | 315 | 8.0 | 29.0 | 0.00 | 0.00 | 0.00 | 43 | 1009.3 |
| 20260508183900 | 14 | 338 | 14.5 | 29.0 | 0.00 | 0.00 | 0.00 | 42 | 1009.5 |
| 20260508183352 | 14 | 338 | 12.9 | 24.1 | 0.00 | 0.00 | 0.00 | 42 | 1009.4 |
| 20260508182841 | 15 | 338 | 11.3 | 20.9 | 0.00 | 0.00 | 0.00 | 30 | 1009.5 |
| 20260508182553 | 15 | 315 | 12.9 | 20.9 | 0.00 | 0.00 | 0.00 | 30 | 1009.3 |
| 20260508182050 | 15 | 315 | 11.3 | 24.1 | 0.00 | 0.00 | 0.00 | 32 | 1009.9 |
| 20260508181536 | 15 | 293 | 8.0 | 24.1 | 0.00 | 0.00 | 0.00 | 31 | 1009.7 |
| 20260508180802 | 15 | 293 | 6.4 | 20.9 | 0.00 | 0.00 | 0.00 | 32 | 1009.6 |
| 20260508180258 | 15 | 225 | 4.8 | 20.9 | 0.00 | 0.00 | 0.00 | 32 | 1009.8 |
| 20260508175744 | 15 | 293 | 6.4 | 20.9 | 0.00 | 0.00 | 0.00 | 32 | 1009.9 |
| 20260508175231 | 15 | 225 | 8.0 | 20.9 | 0.00 | 0.00 | 0.00 | 34 | 1010.1 |
| 20260508174951 | 15 | 248 | 6.4 | 20.9 | 0.00 | 0.00 | 0.00 | 35 | 1010.2 |
| 20260508174202 | 15 | 248 | 6.4 | 20.9 | 0.00 | 0.00 | 0.00 | 34 | 1010.4 |
| 20260508173655 | 15 | 270 | 6.4 | 20.9 | 0.00 | 0.00 | 0.00 | 36 | 1010.4 |
| 20260508173155 | 15 | 315 | 6.4 | 17.7 | 0.00 | 0.00 | 0.00 | 36 | 1010.8 |
| 20260508172652 | 15 | 338 | 6.4 | 20.9 | 0.00 | 0.00 | 0.00 | 35 | 1010.9 |
| 20260508172151 | 15 | 293 | 8.0 | 20.9 | 0.00 | 0.00 | 0.00 | 36 | 1010.9 |
| 20260508171635 | 15 | 293 | 12.9 | 17.7 | 0.00 | 0.00 | 0.00 | 36 | 1010.8 |
| 20260508171110 | 15 | 315 | 6.4 | 17.7 | 0.00 | 0.00 | 0.00 | 36 | 1011.0 |
| 20260508170553 | 14 | 23 | 4.8 | 17.7 | 0.00 | 0.00 | 0.00 | 37 | 1011.0 |
| 20260508170034 | 14 | 293 | 6.4 | 17.7 | 0.00 | 0.00 | 0.00 | 36 | 1011.5 |
| 20260508165530 | 14 | 23 | 6.4 | 17.7 | 0.00 | 0.00 | 0.00 | 36 | 1011.7 |
| 20260508165017 | 14 | 338 | 4.8 | 14.5 | 0.00 | 0.00 | 0.00 | 36 | 1011.7 |
| 20260508164514 | 13 | 68 | 6.4 | 14.5 | 0.00 | 0.00 | 0.00 | 36 | 1012.0 |
| 20260508163955 | 13 | 315 | 6.4 | 14.5 | 0.00 | 0.00 | 0.00 | 36 | 1011.8 |
| 20260508163443 | 13 | 293 | 11.3 | 17.7 | 0.00 | 0.00 | 0.00 | 36 | 1012.1 |
| 20260508162917 | 13 | 315 | 4.8 | 17.7 | 0.00 | 0.00 | 0.00 | 36 | 1012.4 |
| 20260508162625 | 13 | 293 | 6.4 | 14.5 | 0.00 | 0.00 | 0.00 | 36 | 1012.4 |
| 20260508161829 | 13 | 293 | 8.0 | 14.5 | 0.00 | 0.00 | 0.00 | 36 | 1012.3 |
| 20260508161309 | 13 | 338 | 9.7 | 14.5 | 0.00 | 0.00 | 0.00 | 35 | 1012.5 |
| 20260508160801 | 13 | 68 | 6.4 | 14.5 | 0.00 | 0.00 | 0.00 | 36 | 1012.6 |
| 20260508160259 | 13 | 338 | 6.4 | 17.7 | 0.00 | 0.00 | 0.00 | 36 | 1012.7 |
| 20260508155742 | 13 | 315 | 11.3 | 17.7 | 0.00 | 0.00 | 0.00 | 36 | 1012.8 |
| 20260508155229 | 13 | 315 | 11.3 | 17.7 | 0.00 | 0.00 | 0.00 | 35 | 1013.1 |
| 20260508154948 | 13 | 315 | 4.8 | 14.5 | 0.00 | 0.00 | 0.00 | 36 | 1012.8 |
| 20260508154159 | 13 | 338 | 4.8 | 17.7 | 0.00 | 0.00 | 0.00 | 35 | 1012.9 |
| 20260508153643 | 13 | 338 | 6.4 | 17.7 | 0.00 | 0.00 | 0.00 | 36 | 1012.8 |
| 20260508153408 | 13 | 315 | 6.4 | 17.7 | 0.00 | 0.00 | 0.00 | 37 | 1013.0 |
| 20260508152634 | 13 | 338 | 8.0 | 14.5 | 0.00 | 0.00 | 0.00 | 37 | 1013.0 |
| 20260508152404 | 14 | 315 | 6.4 | 14.5 | 0.00 | 0.00 | 0.00 | 36 | 1013.0 |
| 20260508151612 | 13 | 0 | 4.8 | 14.5 | 0.00 | 0.00 | 0.00 | 38 | 1013.1 |
| 20260508151048 | 14 | 270 | 6.4 | 14.5 | 0.00 | 0.00 | 0.00 | 36 | 1013.1 |
| 20260508150755 | 13 | 338 | 9.7 | 14.5 | 0.00 | 0.00 | 0.00 | 34 | 1013.1 |
| 20260508150006 | 14 | 293 | 6.4 | 17.7 | 0.00 | 0.00 | 0.00 | 34 | 1013.1 |
| 20260508145451 | 14 | 23 | 6.4 | 17.7 | 0.00 | 0.00 | 0.00 | 34 | 1013.2 |
| 20260508144949 | 14 | 0 | 8.0 | 14.5 | 0.00 | 0.00 | 0.00 | 34 | 1013.1 |
| 20260508144939 | 14 | 23 | 4.8 | 14.5 | 0.00 | 0.00 | 0.00 | 34 | 1013.1 |
| 20260508143932 | 14 | 23 | 4.8 | 14.5 | 0.00 | 0.00 | 0.00 | 33 | 1013.2 |
| 20260508143652 | 14 | 23 | 6.4 | 14.5 | 0.00 | 0.00 | 0.00 | 33 | 1013.5 |
| 20260508142857 | 14 | 23 | 8.0 | 14.5 | 0.00 | 0.00 | 0.00 | 33 | 1013.6 |
| 20260508142627 | 14 | 338 | 4.8 | 14.5 | 0.00 | 0.00 | 0.00 | 33 | 1013.7 |
| 20260508141833 | 14 | 338 | 4.8 | 14.5 | 0.00 | 0.00 | 0.00 | 33 | 1013.7 |
| 20260508141557 | 13 | 315 | 4.8 | 12.9 | 0.00 | 0.00 | 0.00 | 31 | 1013.7 |
| 20260508140819 | 13 | 0 | 8.0 | 11.3 | 0.00 | 0.00 | 0.00 | 31 | 1013.8 |
| 20260508140542 | 14 | 23 | 3.2 | 9.7 | 0.00 | 0.00 | 0.00 | 32 | 1013.7 |
| 20260508135800 | 13 | 0 | 3.2 | 9.7 | 0.00 | 0.00 | 0.00 | 33 | 1013.8 |
| 20260508135241 | 13 | 0 | 3.2 | 11.3 | 0.00 | 0.00 | 0.00 | 32 | 1013.7 |
| 20260508134718 | 13 | 338 | 4.8 | 11.3 | 0.00 | 0.00 | 0.00 | 31 | 1013.7 |
| 20260508134444 | 12 | 338 | 4.8 | 9.7 | 0.00 | 0.00 | 0.00 | 32 | 1013.5 |
| 20260508133939 | 12 | 338 | 6.4 | 11.3 | 0.00 | 0.00 | 0.00 | 32 | 1013.8 |
| 20260508133203 | 12 | 293 | 6.4 | 11.3 | 0.00 | 0.00 | 0.00 | 34 | 1013.7 |
| 20260508132656 | 12 | 315 | 6.4 | 11.3 | 0.00 | 0.00 | 0.00 | 33 | 1013.6 |
| 20260508132154 | 12 | 315 | 4.8 | 6.4 | 0.00 | 0.00 | 0.00 | 34 | 1013.6 |
| 20260508131643 | 12 | 338 | 3.2 | 6.4 | 0.00 | 0.00 | 0.00 | 35 | 1013.8 |
| 20260508131122 | 12 | 338 | 0.0 | 6.4 | 0.00 | 0.00 | 0.00 | 38 | 1014.0 |
| 20260508130616 | 11 | 270 | 4.8 | 6.4 | 0.00 | 0.00 | 0.00 | 37 | 1013.8 |
| 20260508130103 | 12 | 225 | 0.0 | 3.2 | 0.00 | 0.00 | 0.00 | 37 | 1013.7 |
| 20260508125556 | 12 | 135 | 0.0 | 0.0 | 0.00 | 0.00 | 0.00 | 36 | 1013.7 |
| 20260508125045 | 12 | 158 | 0.0 | 0.0 | 0.00 | 0.00 | 0.00 | 37 | 1013.6 |
| 20260508124805 | 11 | 180 | 0.0 | 0.0 | 0.00 | 0.00 | 0.00 | 44 | 1013.8 |
| 20260508124016 | 10 | 180 | 0.0 | 0.0 | 0.00 | 0.00 | 0.00 | 45 | 1013.8 |
| 20260508123456 | 10 | 180 | 0.0 | 3.2 | 0.00 | 0.00 | 0.00 | 48 | 1013.8 |
| 20260508122935 | 8 | 180 | 0.0 | 3.2 | 0.00 | 0.00 | 0.00 | 49 | 1013.6 |
| 20260508122414 | 8 | 203 | 0.0 | 0.0 | 0.00 | 0.00 | 0.00 | 51 | 1013.4 |
| 20260508121907 | 8 | 203 | 0.0 | 3.2 | 0.00 | 0.00 | 0.00 | 50 | 1013.6 |
| 20260508121358 | 7 | 203 | 0.0 | 3.2 | 0.00 | 0.00 | 0.00 | 54 | 1013.4 |
| 20260508121108 | 6 | 203 | 0.0 | 3.2 | 0.00 | 0.00 | 0.00 | 55 | 1013.2 |
| 20260508120313 | 6 | 203 | 1.6 | 3.2 | 0.00 | 0.00 | 0.00 | 55 | 1013.4 |
| 20260508115804 | 6 | 158 | 0.0 | 3.2 | 0.00 | 0.00 | 0.00 | 58 | 1013.2 |
| 20260508115250 | 5 | 158 | 0.0 | 3.2 | 0.00 | 0.00 | 0.00 | 59 | 1013.1 |
| 20260508115011 | 3 | 225 | 3.2 | 3.2 | 0.00 | 0.03 | 0.00 | 62 | 1013.0 |
| 20260508114226 | 3 | 203 | 0.0 | 6.4 | 0.00 | 0.03 | 0.00 | 67 | 1012.9 |
| 20260508113704 | 3 | 203 | 0.0 | 6.4 | 0.00 | 0.03 | 0.00 | 66 | 1012.9 |
| 20260508113147 | 3 | 158 | 0.0 | 3.2 | 0.00 | 0.03 | 0.00 | 65 | 1012.7 |
| 20260508112624 | 2 | 180 | 0.0 | 3.2 | 0.00 | 0.03 | 0.00 | 65 | 1012.7 |
| 20260508112107 | 2 | 180 | 1.6 | 3.2 | 0.00 | 0.10 | 0.00 | 63 | 1012.9 |
| 20260508111556 | 2 | 180 | 0.0 | 6.4 | 0.00 | 0.15 | 0.00 | 65 | 1012.9 |
| 20260508111030 | 2 | 180 | 1.6 | 6.4 | 0.00 | 0.28 | 0.00 | 64 | 1012.7 |
| 20260508110521 | 2 | 203 | 0.0 | 6.4 | 0.00 | 0.33 | 0.00 | 64 | 1012.5 |
| 20260508110009 | 2 | 203 | 1.6 | 6.4 | 0.00 | 0.43 | 0.00 | 64 | 1012.6 |
| 20260508105453 | 2 | 225 | 0.0 | 3.2 | 0.00 | 0.48 | 0.00 | 63 | 1012.3 |
| 20260508104948 | 2 | 203 | 0.0 | 3.2 | 0.00 | 0.51 | 0.00 | 64 | 1012.4 |
| 20260508104433 | 3 | 180 | 0.0 | 3.2 | 0.00 | 0.53 | 0.00 | 61 | 1012.3 |
| 20260508103929 | 3 | 180 | 0.0 | 3.2 | 0.00 | 0.56 | 0.00 | 60 | 1012.4 |
| 20260508103427 | 3 | 180 | 0.0 | 0.0 | 0.00 | 0.61 | 0.00 | 60 | 1012.0 |
| 20260508102912 | 3 | 180 | 0.0 | 0.0 | 0.00 | 0.61 | 0.00 | 56 | 1012.4 |
| 20260508102623 | 3 | 180 | 0.0 | 3.2 | 0.00 | 0.64 | 0.00 | 57 | 1011.9 |
| 20260508101838 | 3 | 203 | 1.6 | 3.2 | 0.00 | 0.64 | 0.00 | 57 | 1012.0 |
| 20260508101820 | 3 | 180 | 0.0 | 3.2 | 0.00 | 0.64 | 0.00 | 56 | 1012.0 |
| 20260508100802 | 3 | 180 | 1.6 | 3.2 | 0.00 | 0.64 | 0.00 | 53 | 1012.0 |
| 20260508100250 | 3 | 180 | 3.2 | 3.2 | 0.00 | 0.64 | 0.00 | 51 | 1011.8 |
| 20260508095746 | 4 | 158 | 0.0 | 0.0 | 0.00 | 0.64 | 0.00 | 49 | 1011.9 |
| 20260508095237 | 5 | 158 | 0.0 | 6.4 | 0.00 | 0.64 | 0.00 | 48 | 1011.6 |
| 20260508094725 | 5 | 158 | 0.0 | 6.4 | 0.00 | 0.64 | 0.00 | 47 | 1011.6 |
| 20260508094209 | 5 | 135 | 0.0 | 6.4 | 0.00 | 0.64 | 0.00 | 46 | 1011.2 |
| 20260508093936 | 5 | 158 | 1.6 | 6.4 | 0.00 | 0.64 | 0.00 | 46 | 1011.4 |
| 20260508093146 | 5 | 158 | 1.6 | 6.4 | 0.00 | 0.64 | 0.00 | 47 | 1011.5 |
| 20260508092635 | 4 | 135 | 1.6 | 6.4 | 0.00 | 0.64 | 0.00 | 49 | 1011.4 |
| 20260508092127 | 4 | 135 | 3.2 | 6.4 | 0.00 | 0.64 | 0.00 | 52 | 1011.6 |
| 20260508091616 | 4 | 158 | 1.6 | 3.2 | 0.00 | 0.64 | 0.00 | 53 | 1011.5 |
| 20260508091114 | 4 | 158 | 1.6 | 3.2 | 0.00 | 0.64 | 0.00 | 54 | 1011.3 |
| 20260508090841 | 5 | 158 | 1.6 | 3.2 | 0.00 | 0.64 | 0.00 | 53 | 1011.3 |
| 20260508085556 | 5 | 180 | 0.0 | 3.2 | 0.00 | 0.64 | 0.00 | 54 | 1010.9 |
| 20260508085053 | 5 | 158 | 0.0 | 3.2 | 0.00 | 0.64 | 0.00 | 52 | 1010.8 |
| 20260508084552 | 5 | 158 | 0.0 | 3.2 | 0.00 | 0.64 | 0.00 | 52 | 1010.8 |
| 20260508084044 | 5 | 158 | 0.0 | 3.2 | 0.00 | 0.64 | 0.00 | 52 | 1010.9 |
| 20260508083522 | 5 | 158 | 1.6 | 3.2 | 0.00 | 0.64 | 0.00 | 50 | 1010.9 |
| 20260508083005 | 5 | 180 | 1.6 | 3.2 | 0.00 | 0.64 | 0.00 | 50 | 1010.7 |
| 20260508082453 | 5 | 158 | 0.0 | 3.2 | 0.00 | 0.64 | 0.00 | 50 | 1010.5 |
| 20260508081952 | 5 | 158 | 0.0 | 3.2 | 0.00 | 0.64 | 0.00 | 52 | 1010.6 |
| 20260508081444 | 3 | 158 | 0.0 | 6.4 | 0.00 | 0.64 | 0.00 | 61 | 1010.6 |
| 20260508080924 | 3 | 158 | 0.0 | 6.4 | 0.00 | 0.64 | 0.00 | 68 | 1010.7 |
| 20260508080421 | 3 | 203 | 0.0 | 6.4 | 0.00 | 0.64 | 0.00 | 70 | 1010.5 |
| 20260508075858 | 3 | 180 | 3.2 | 6.4 | 0.00 | 0.64 | 0.00 | 71 | 1010.4 |
| 20260508075356 | 3 | 180 | 1.6 | 3.2 | 0.00 | 0.64 | 0.00 | 69 | 1010.4 |
| 20260508075140 | 3 | 158 | 0.0 | 0.0 | 0.00 | 0.64 | 0.00 | 69 | 1010.4 |
| 20260508074345 | 3 | 135 | 0.0 | 3.2 | 0.00 | 0.64 | 0.00 | 69 | 1010.4 |
| 20260508073832 | 3 | 180 | 0.0 | 3.2 | 0.00 | 0.64 | 0.00 | 68 | 1010.5 |
| 20260508073311 | 4 | 180 | 3.2 | 3.2 | 0.00 | 0.64 | 0.00 | 66 | 1010.6 |
| 20260508073033 | 4 | 158 | 0.0 | 0.0 | 0.00 | 0.64 | 0.00 | 64 | 1010.4 |
| 20260508072244 | 4 | 158 | 0.0 | 0.0 | 0.00 | 0.64 | 0.00 | 64 | 1010.4 |
| 20260508071729 | 5 | 158 | 0.0 | 0.0 | 0.00 | 0.64 | 0.00 | 65 | 1010.6 |
| 20260508071228 | 4 | 158 | 0.0 | 0.0 | 0.00 | 0.64 | 0.00 | 62 | 1010.4 |
| 20260508070726 | 5 | 158 | 0.0 | 0.0 | 0.00 | 0.64 | 0.00 | 60 | 1010.4 |
| 20260508070450 | 5 | 158 | 0.0 | 0.0 | 0.00 | 0.64 | 0.00 | 59 | 1010.3 |
| 20260508065706 | 5 | 158 | 0.0 | 0.0 | 0.00 | 0.64 | 0.00 | 61 | 1010.4 |
| 20260508065147 | 5 | 158 | 0.0 | 0.0 | 0.00 | 0.64 | 0.00 | 60 | 1010.7 |
| 20260508064631 | 5 | 158 | 0.0 | 3.2 | 0.00 | 0.64 | 0.00 | 64 | 1010.6 |
| 20260508064122 | 5 | 158 | 0.0 | 3.2 | 0.00 | 0.64 | 0.00 | 63 | 1010.4 |
| 20260508063601 | 6 | 135 | 0.0 | 0.0 | 0.00 | 0.64 | 0.00 | 61 | 1010.7 |
| 20260508063050 | 6 | 135 | 0.0 | 0.0 | 0.00 | 0.64 | 0.00 | 56 | 1010.8 |
| 20260508062543 | 6 | 158 | 0.0 | 0.0 | 0.00 | 0.64 | 0.00 | 57 | 1010.7 |
| 20260508062306 | 6 | 158 | 0.0 | 3.2 | 0.00 | 0.64 | 0.00 | 54 | 1010.7 |
| 20260508061521 | 6 | 158 | 0.0 | 3.2 | 0.00 | 0.64 | 0.00 | 56 | 1010.8 |
| 20260508061010 | 7 | 158 | 0.0 | 0.0 | 0.00 | 0.64 | 0.00 | 45 | 1010.9 |
| 20260508060510 | 6 | 158 | 0.0 | 0.0 | 0.00 | 0.64 | 0.00 | 54 | 1011.0 |
| 20260508060217 | 7 | 158 | 0.0 | 0.0 | 0.00 | 0.64 | 0.00 | 55 | 1010.8 |
| 20260508055431 | 7 | 158 | 0.0 | 0.0 | 0.00 | 0.64 | 0.00 | 54 | 1010.8 |
| 20260508054910 | 6 | 180 | 0.0 | 0.0 | 0.00 | 0.64 | 0.00 | 52 | 1010.8 |
| 20260508054410 | 6 | 158 | 0.0 | 6.4 | 0.00 | 0.64 | 0.00 | 53 | 1011.3 |
| 20260508053905 | 6 | 158 | 0.0 | 6.4 | 0.00 | 0.64 | 0.00 | 59 | 1011.0 |
| 20260508053357 | 6 | 180 | 1.6 | 3.2 | 0.00 | 0.64 | 0.00 | 58 | 1011.3 |
| 20260508052849 | 6 | 180 | 0.0 | 0.0 | 0.00 | 0.64 | 0.00 | 66 | 1011.2 |
| 20260508052604 | 6 | 180 | 0.0 | 0.0 | 0.00 | 0.64 | 0.00 | 62 | 1011.3 |
| 20260508051829 | 6 | 180 | 0.0 | 0.0 | 0.00 | 0.64 | 0.00 | 62 | 1011.0 |
| 20260508051327 | 6 | 180 | 0.0 | 0.0 | 0.00 | 0.64 | 0.00 | 62 | 1011.0 |
| 20260508050812 | 7 | 180 | 0.0 | 3.2 | 0.00 | 0.64 | 0.00 | 61 | 1011.3 |
| 20260508050551 | 8 | 180 | 0.0 | 3.2 | 0.00 | 0.64 | 0.00 | 56 | 1011.2 |
| 20260508050310 | 7 | 180 | 0.0 | 3.2 | 0.00 | 0.64 | 0.00 | 59 | 1011.2 |
| 20260508045253 | 8 | 158 | 0.0 | 0.0 | 0.00 | 0.64 | 0.00 | 45 | 1011.4 |
| 20260508044750 | 8 | 158 | 0.0 | 0.0 | 0.00 | 0.64 | 0.00 | 40 | 1011.2 |
| 20260508044226 | 8 | 158 | 0.0 | 0.0 | 0.00 | 0.64 | 0.00 | 40 | 1011.3 |